Temp
19 18 17 17 18 18 20 22 19 22 24 25 24 24 21 19 20 18 18 18 18 18 18 18 18 18 19 19 19 19 19 19 19 18 19 18 18 18 18 18 18 18 19 19 18 18 18 18 18
19 18 18 18 19 19 20 20 21 21 22 24 23 23 21 17 16 16 17 17 18 18 18 18 18 19 19 19 19 19 19 19 19 19 19 18 18 18 17 17 18 18 18 18 18 18 18 18 17
19 18 18 18 19 19 20 21 23 24 24 24 23 21 19 17 16 17 17 18 18 18 17 18 19 19 19 19 19 19 19 19 19 18 18 18 18 18 18 17 17 18 18 18 18 19 18 18 18
19 18 18 19 20 21 21 22 23 24 25 23 21 19 17 16 17 17 17 18 18 18 18 19 19 19 19 19 19 19 19 19 18 17 17 18 18 18 18 18 18 18 18 18 18 18 18 18 17
19 19 19 19 20 19 21 21 20 23 24 22 21 17 16 17 17 17 17 18 18 18 18 18 19 19 19 19 19 19 19 19 18 18 18 18 18 18 18 18 18 18 18 18 18 18 18 18 18
19 17 19 19 20 22 23 22 21 23 22 20 19 19 17 18 17 17 17 17 19 18 18 19 19 19 19 19 19 19 19 19 18 18 19 18 19 19 19 18 18 18 18 18 19 18 18 18 17
18 19 20 20 21 20 24 22 22 23 22 21 20 18 16 18 17 17 17 18 18 18 19 19 19 19 19 19 19 19 19 19 19 18 19 19 19 19 19 18 18 18 18 18 19 18 18 18 17
20 19 20 19 20 21 25 23 23 23 22 20 20 17 16 18 17 17 17 18 18 19 19 19 19 20 19 19 20 19 19 19 19 19 19 19 19 19 19 19 19 19 19 19 19 19 19 18 17
20 21 20 22 23 23 23 25 23 23 21 22 21 18 18 18 17 17 17 18 18 18 19 19 20 20 19 20 19 19 19 19 19 19 19 19 19 19 19 18 19 19 19 19 19 19 18 18 17
21 19 21 24 23 24 25 24 23 22 21 20 19 18 18 18 18 18 18 18 18 18 19 20 20 20 20 20 20 19 19 19 19 19 19 19 19 19 19 18 18 19 19 19 19 19 19 18 17
22 20 23 25 26 25 25 26 24 21 20 19 18 18 18 18 18 18 17 18 19 19 19 20 20 20 20 20 20 20 19 19 19 19 19 19 19 19 19 18 18 19 19 19 19 19 19 19 17
21 24 25 26 26 26 26 26 24 24 21 21 21 19 18 18 18 18 17 18 19 20 20 20 20 20 20 20 20 20 19 19 20 19 19 19 19 19 19 19 18 19 19 19 19 19 19 19 18
23 24 26 26 26 26 26 26 24 23 21 20 19 19 18 18 18 18 18 19 19 20 20 21 20 20 20 20 20 20 20 20 20 19 19 19 19 19 19 19 19 19 19 19 19 19 19 19 19
25 25 26 27 27 25 26 26 24 21 20 19 19 19 19 19 19 19 18 19 19 20 20 21 20 20 20 20 20 20 20 20 20 20 19 19 19 19 20 19 19 19 19 19 19 19 19 19 19
25 25 27 27 28 25 26 24 22 20 20 20 19 19 19 19 19 19 19 19 20 20 21 20 20 20 20 20 19 20 20 20 20 20 20 19 20 19 19 19 19 19 19 19 19 19 19 19 19
24 24 24 27 26 25 25 22 21 21 20 20 20 19 19 19 20 20 20 20 20 20 20 20 20 20 20 20 20 19 20 20 20 20 20 20 20 20 19 19 20 19 19 19 19 19 19 20 20
22 21 23 26 27 25 24 21 22 21 21 20 20 20 20 20 20 20 20 20 21 20 20 20 20 20 20 20 20 20 20 20 20 20 20 20 20 20 19 19 19 19 19 19 19 19 19 19 20
21 22 23 25 28 26 24 22 22 22 22 21 20 20 20 20 20 20 21 21 21 21 20 21 20 20 20 20 21 20 20 20 20 20 20 20 20 20 20 19 20 19 19 20 19 19 19 19 20
23 23 23 26 27 25 22 22 22 23 21 22 21 20 20 20 21 21 21 21 21 21 21 21 21 21 20 20 20 20 20 20 20 20 20 20 20 20 20 20 20 19 19 19 19 19 19 19 20
23 24 25 26 28 28 24 24 23 22 21 22 22 22 21 20 21 21 21 21 21 21 21 21 21 21 21 21 21 21 20 20 20 20 20 20 20 20 20 20 20 19 19 19 19 19 19 19 20
23 23 24 25 27 27 24 21 21 21 22 22 23 22 22 22 21 21 22 22 21 21 21 21 21 21 21 21 21 21 21 20 20 20 20 20 20 19 20 20 20 19 19 19 19 19 20 19 20
22 25 26 26 26 24 26 19 21 21 21 22 21 23 23 22 22 22 21 22 22 22 22 22 22 22 22 21 21 20 21 21 21 21 20 20 20 19 19 19 19 19 19 19 19 19 19 20 20
24 25 25 26 24 24 26 22 21 22 21 22 23 23 23 23 24 23 23 23 22 22 22 22 22 22 22 22 21 21 20 22 22 21 20 20 20 19 20 20 19 19 19 20 19 19 19 19 19
26 25 24 24 22 22 24 26 22 21 23 24 24 23 23 23 24 24 24 23 22 22 23 22 22 22 22 22 21 21 21 21 21 21 20 20 20 20 20 20 20 20 20 19 19 19 19 19 19
25 22 21 20 21 21 23 22 26 24 25 25 25 25 24 24 25 25 24 23 22 22 23 23 23 22 22 22 21 21 21 21 21 21 21 20 20 20 20 20 20 20 20 19 19 19 19 19 19
23 24 20 20 19 23 22 23 26 25 27 26 25 26 25 25 24 25 25 24 24 24 24 23 23 23 23 22 22 21 21 21 21 21 21 21 20 21 21 20 20 20 20 20 19 20 20 19 19
23 22 24 20 21 20 21 25 26 26 25 27 27 26 25 26 25 25 25 24 24 24 24 24 24 23 23 23 22 22 22 21 21 22 21 21 21 21 21 21 21 21 21 20 20 20 20 20 20
25 23 23 18 22 21 21 23 26 26 26 26 27 27 26 25 25 25 26 24 24 24 25 25 24 24 23 23 23 22 22 22 22 22 22 21 21 21 21 21 21 21 21 21 20 20 20 20 20
24 24 23 22 19 22 20 24 24 25 25 25 26 28 27 26 25 26 26 25 24 24 25 25 24 24 24 23 23 23 22 22 22 22 22 22 21 21 21 21 21 21 21 21 21 20 20 20 21
24 23 23 23 21 19 20 25 27 26 26 26 27 29 28 27 27 27 27 25 24 24 24 25 25 24 24 24 24 23 23 22 22 22 23 23 22 22 21 21 21 21 21 22 21 21 21 20 21
Height
1515 1516 1516 1516 1522 1520 1519 1511 1506 1502 1499 1498 1503 1503 1507 1510 1514 1526 1525 1533 1538 1541 1544 1547 1550 1553 1555 1556 1557 1558 1560 1561 1562 1563 1563 1563 1564 1564 1565 1566 1567 1569 1570 1570 1570 1570 1570 1570 1570
1515 1516 1516 1515 1519 1527 1521 1510 1504 1502 1501 1497 1502 1504 1508 1517 1517 1519 1526 1534 1539 1542 1545 1548 1551 1554 1556 1558 1559 1560 1561 1563 1563 1564 1565 1566 1566 1567 1567 1569 1569 1570 1572 1572 1572 1572 1572 1572 1573
1516 1516 1517 1515 1515 1522 1520 1507 1501 1500 1501 1497 1502 1506 1512 1518 1519 1522 1528 1535 1540 1544 1547 1549 1552 1555 1558 1559 1561 1562 1563 1565 1565 1566 1567 1568 1568 1569 1570 1571 1572 1573 1574 1574 1574 1574 1574 1574 1574
1516 1518 1516 1517 1517 1512 1510 1508 1506 1502 1500 1498 1502 1511 1517 1519 1522 1526 1531 1537 1541 1545 1548 1551 1554 1556 1559 1561 1563 1564 1565 1566 1567 1568 1569 1570 1571 1571 1572 1572 1573 1574 1576 1576 1576 1576 1576 1576 1577
1516 1517 1518 1518 1518 1511 1506 1510 1510 1505 1499 1502 1501 1517 1520 1526 1526 1530 1534 1539 1542 1546 1550 1553 1555 1558 1560 1562 1564 1565 1566 1567 1569 1570 1570 1571 1573 1573 1574 1575 1575 1576 1577 1578 1578 1578 1578 1578 1579
1517 1518 1522 1522 1517 1508 1502 1505 1505 1505 1501 1505 1507 1513 1525 1529 1531 1534 1537 1541 1545 1547 1550 1554 1557 1559 1561 1564 1566 1567 1568 1570 1571 1571 1572 1574 1575 1576 1576 1577 1578 1578 1579 1579 1579 1579 1579 1579 1580
1513 1512 1519 1517 1514 1510 1495 1497 1500 1503 1503 1505 1506 1516 1525 1530 1534 1537 1540 1544 1547 1550 1552 1555 1557 1560 1563 1565 1567 1569 1570 1572 1572 1573 1575 1576 1577 1578 1579 1579 1579 1580 1580 1581 1581 1581 1581 1582 1582
1510 1511 1514 1516 1517 1511 1498 1496 1497 1500 1502 1505 1506 1514 1523 1528 1535 1539 1543 1546 1549 1552 1554 1556 1559 1561 1564 1567 1569 1570 1572 1573 1574 1576 1577 1578 1580 1580 1580 1580 1581 1581 1582 1583 1582 1583 1583 1583 1585
1512 1514 1517 1508 1506 1502 1496 1494 1502 1501 1500 1506 1508 1508 1517 1527 1535 1540 1544 1547 1550 1553 1555 1557 1560 1563 1566 1568 1570 1572 1574 1575 1577 1578 1579 1581 1581 1581 1581 1582 1582 1583 1583 1584 1583 1584 1584 1585 1586
1510 1512 1503 1493 1493 1496 1497 1495 1500 1503 1506 1509 1510 1515 1523 1528 1534 1538 1541 1544 1548 1552 1555 1558 1561 1564 1567 1569 1571 1573 1575 1577 1578 1579 1581 1582 1582 1582 1582 1583 1583 1584 1585 1585 1585 1585 1586 1587 1588
1501 1502 1491 1490 1490 1493 1495 1495 1496 1502 1508 1500 1505 1512 1524 1528 1534 1537 1541 1543 1547 1551 1555 1558 1561 1565 1568 1571 1572 1574 1576 1578 1578 1580 1581 1583 1582 1582 1582 1584 1585 1586 1587 1586 1586 1587 1588 1589 1590
1498 1489 1488 1486 1488 1492 1491 1495 1495 1492 1493 1501 1500 1504 1517 1526 1531 1536 1540 1543 1546 1551 1555 1559 1562 1565 1569 1571 1573 1575 1576 1578 1579 1581 1583 1584 1583 1582 1583 1584 1586 1587 1588 1587 1588 1588 1589 1590 1590
1493 1485 1486 1485 1487 1487 1488 1491 1494 1493 1495 1502 1509 1511 1516 1525 1532 1537 1541 1545 1547 1551 1555 1559 1562 1566 1569 1571 1573 1575 1576 1578 1580 1581 1583 1585 1584 1583 1583 1585 1587 1588 1588 1588 1588 1589 1590 1590 1591
1480 1485 1485 1485 1480 1487 1489 1489 1491 1504 1499 1504 1508 1515 1518 1522 1527 1535 1540 1542 1546 1551 1554 1558 1561 1565 1568 1570 1573 1575 1577 1579 1580 1582 1583 1585 1584 1584 1584 1585 1587 1588 1587 1588 1588 1589 1591 1592 1591
1480 1486 1482 1481 1479 1489 1486 1496 1499 1503 1508 1505 1511 1515 1521 1525 1528 1531 1535 1539 1544 1549 1553 1557 1560 1564 1566 1569 1573 1575 1576 1577 1580 1581 1583 1584 1586 1585 1585 1587 1588 1588 1588 1588 1589 1590 1590 1591 1592
1480 1481 1491 1474 1481 1488 1487 1509 1505 1502 1501 1508 1510 1513 1518 1522 1526 1529 1535 1538 1542 1547 1550 1555 1559 1562 1565 1567 1571 1574 1575 1576 1579 1581 1582 1585 1585 1586 1587 1588 1590 1589 1589 1589 1589 1591 1592 1591 1592
1480 1493 1485 1474 1471 1479 1488 1504 1504 1503 1505 1508 1509 1507 1512 1518 1524 1527 1531 1535 1539 1543 1548 1552 1556 1559 1563 1566 1570 1573 1575 1576 1578 1580 1582 1583 1584 1585 1588 1589 1589 1590 1590 1590 1590 1592 1592 1592 1593
1490 1486 1479 1476 1461 1472 1487 1496 1496 1501 1501 1505 1507 1506 1509 1512 1515 1519 1527 1533 1537 1540 1545 1549 1553 1557 1561 1564 1568 1571 1573 1575 1577 1578 1581 1583 1584 1585 1586 1588 1588 1589 1590 1591 1591 1592 1592 1593 1593
1472 1475 1477 1463 1461 1471 1478 1489 1484 1485 1496 1499 1499 1504 1504 1503 1510 1517 1522 1528 1534 1536 1540 1544 1548 1553 1558 1561 1563 1567 1570 1573 1575 1576 1579 1581 1583 1584 1585 1586 1587 1589 1590 1591 1591 1592 1592 1593 1593
1468 1471 1467 1458 1455 1459 1472 1480 1471 1479 1479 1485 1491 1493 1497 1503 1504 1511 1516 1522 1527 1530 1534 1539 1543 1549 1553 1557 1559 1563 1568 1570 1573 1575 1577 1579 1581 1582 1584 1585 1586 1587 1589 1590 1590 1591 1591 1592 1593
1461 1466 1464 1465 1456 1457 1468 1493 1490 1484 1484 1486 1489 1490 1493 1496 1500 1504 1509 1513 1519 1524 1528 1532 1538 1543 1548 1553 1557 1560 1565 1567 1569 1571 1573 1576 1579 1581 1582 1584 1585 1585 1587 1588 1589 1590 1591 1592 1593
1464 1449 1454 1456 1466 1482 1458 1507 1485 1479 1479 1479 1479 1481 1486 1489 1494 1499 1502 1507 1511 1516 1523 1528 1533 1538 1543 1548 1552 1555 1556 1558 1561 1566 1571 1574 1576 1579 1581 1583 1583 1584 1586 1586 1588 1589 1590 1591 1593
1449 1448 1452 1454 1466 1470 1464 1486 1473 1470 1477 1468 1462 1468 1473 1479 1485 1489 1493 1497 1502 1510 1516 1522 1527 1532 1537 1542 1547 1550 1553 1555 1559 1563 1568 1570 1573 1576 1579 1581 1581 1582 1583 1584 1586 1588 1589 1590 1592
1440 1448 1451 1455 1466 1485 1466 1469 1475 1468 1457 1452 1452 1455 1460 1468 1476 1482 1485 1492 1498 1504 1510 1517 1522 1526 1531 1536 1540 1545 1548 1551 1555 1559 1562 1566 1570 1572 1575 1577 1579 1579 1580 1582 1584 1586 1587 1589 1590
1439 1456 1482 1491 1483 1483 1456 1468 1448 1439 1434 1434 1438 1445 1451 1460 1468 1475 1480 1485 1490 1495 1501 1508 1515 1520 1525 1530 1534 1539 1543 1548 1551 1554 1558 1561 1565 1567 1571 1573 1575 1576 1578 1579 1581 1583 1585 1587 1588
1434 1440 1469 1490 1491 1469 1450 1462 1435 1420 1416 1423 1430 1430 1440 1452 1459 1465 1471 1477 1482 1486 1493 1500 1506 1513 1518 1523 1528 1533 1538 1542 1546 1551 1554 1558 1561 1565 1568 1570 1572 1573 1575 1577 1579 1581 1582 1584 1585
1428 1435 1429 1459 1457 1469 1453 1433 1420 1413 1418 1419 1424 1428 1435 1439 1448 1454 1464 1470 1476 1480 1484 1490 1498 1505 1511 1516 1522 1527 1531 1536 1540 1545 1550 1554 1558 1561 1564 1566 1568 1570 1573 1575 1577 1578 1579 1581 1582
1406 1417 1441 1454 1466 1476 1457 1443 1426 1417 1413 1409 1409 1417 1422 1430 1438 1450 1457 1462 1468 1471 1477 1484 1491 1497 1503 1510 1516 1521 1525 1529 1534 1540 1544 1548 1553 1557 1559 1561 1564 1567 1569 1573 1574 1575 1576 1577 1579
1409 1413 1417 1426 1448 1455 1470 1434 1403 1403 1401 1402 1403 1407 1417 1420 1428 1441 1448 1453 1459 1466 1473 1477 1484 1492 1498 1504 1510 1515 1519 1524 1528 1532 1537 1542 1548 1551 1553 1556 1559 1562 1565 1568 1570 1571 1572 1572 1574
1395 1407 1413 1428 1445 1445 1444 1418 1390 1390 1390 1390 1391 1396 1400 1409 1416 1429 1439 1446 1454 1462 1466 1471 1477 1484 1490 1497 1503 1507 1513 1517 1521 1525 1529 1535 1540 1545 1548 1551 1554 1558 1561 1563 1565 1566 1567 1567 1568
Wind_Speed
6 11 5 2 1 1 1 3 3 2 3 13 22 6 9 9 2 3 38 34 32 30 29 28 26 24 22 19 17 16 16 15 15 16 16 16 15 15 15 15 14 14 13 13 12 11 12 13 15
8 8 3 1 1 1 1 2 11 5 6 27 15 11 7 4 6 31 41 33 31 31 29 28 26 24 21 17 16 16 15 15 14 14 14 14 14 14 15 13 13 13 13 13 13 13 15 15 17
6 4 2 2 1 2 2 7 7 12 18 11 7 12 6 4 16 46 39 37 32 30 28 27 26 24 19 16 15 15 14 14 14 14 14 14 14 13 14 13 12 13 13 12 13 15 15 15 16
6 1 4 2 3 2 3 4 4 17 8 7 19 9 7 3 40 32 39 35 33 31 27 27 25 22 19 17 15 15 14 14 14 14 14 14 13 14 13 13 12 12 12 12 12 12 13 14 14
7 2 2 2 3 5 8 10 15 9 5 9 5 8 12 26 26 42 37 33 33 31 29 26 24 21 19 17 15 14 14 14 14 14 14 14 15 15 14 13 13 13 13 12 11 10 12 12 13
6 4 0 3 2 4 11 14 11 9 10 15 18 16 8 13 43 36 33 30 30 31 28 26 24 21 19 17 16 14 14 13 14 15 16 15 16 17 16 15 15 15 14 14 14 13 11 13 13
4 3 1 3 7 6 12 2 17 12 13 8 21 6 13 29 37 34 30 28 29 28 27 27 25 21 19 17 15 14 14 14 15 16 17 17 16 16 16 15 15 15 13 13 12 12 11 11 15
3 2 5 4 4 5 5 5 22 21 6 22 25 8 18 50 36 30 30 26 28 28 26 26 24 21 19 17 15 14 14 15 16 17 17 17 16 16 15 14 13 12 11 11 12 12 11 10 13
6 3 5 5 2 4 6 13 17 5 23 5 10 22 50 44 34 35 30 28 27 28 26 25 23 21 19 16 15 14 15 16 17 18 17 18 17 15 14 13 11 9 9 9 9 12 11 9 11
10 4 7 7 9 4 12 16 13 10 13 13 21 37 45 42 37 36 34 33 30 30 27 25 23 21 19 16 15 15 17 18 18 15 14 15 15 14 12 10 8 7 9 10 9 12 11 10 9
13 6 6 8 14 12 6 11 15 23 7 31 42 46 42 40 36 37 34 32 30 30 28 26 23 21 19 17 16 17 18 16 12 13 12 14 13 12 11 8 6 8 9 7 10 10 11 9 7
6 13 21 16 8 7 5 5 14 16 12 30 45 56 47 44 41 40 35 34 30 29 28 26 23 22 20 18 17 18 16 13 13 10 10 10 8 7 6 3 3 3 5 6 12 9 10 7 6
12 17 15 18 10 8 5 9 16 11 29 34 44 45 47 41 40 36 33 32 30 28 27 26 24 23 23 19 18 17 14 12 14 11 9 7 9 8 6 8 5 3 5 8 10 9 8 8 7
8 22 16 7 10 4 10 6 8 18 36 40 43 38 41 42 38 39 35 34 33 27 29 26 25 24 22 18 18 15 12 11 10 7 7 3 6 7 8 5 5 5 5 7 10 7 7 7 8
25 15 11 14 16 3 20 7 8 27 31 41 37 36 33 35 38 38 41 37 33 29 29 29 26 23 20 18 18 15 12 12 10 8 7 5 4 5 5 7 7 5 7 8 7 6 7 7 6
6 11 13 16 12 12 8 1 8 32 36 35 37 35 34 36 40 38 42 38 31 34 33 30 28 26 22 22 23 16 15 14 13 12 9 6 6 7 5 7 4 7 8 7 5 7 8 9 8
2 7 7 14 22 14 7 12 13 30 31 32 36 39 38 34 36 38 44 37 35 37 36 35 34 31 27 24 24 22 21 16 14 13 10 7 5 9 8 6 7 7 7 7 7 6 6 5 5
5 4 6 10 5 18 8 13 13 22 30 32 35 37 41 40 44 42 46 44 41 39 37 36 39 34 31 25 25 26 27 23 18 15 12 12 11 7 9 7 7 10 10 7 7 6 4 6 4
6 7 10 8 16 25 23 22 20 28 19 30 35 36 39 46 49 46 46 43 46 41 39 35 43 39 34 30 31 33 29 28 23 16 16 15 12 11 7 11 11 10 10 9 7 5 7 6 6
13 14 16 14 10 10 20 23 25 22 28 29 36 38 42 40 45 48 46 48 51 48 45 41 42 40 35 28 27 35 34 30 27 22 19 16 14 13 8 10 13 10 10 10 5 10 9 7 9
16 16 14 13 6 7 14 5 11 13 15 21 28 36 37 39 42 45 50 49 50 51 50 47 45 41 37 30 27 26 32 32 29 29 25 21 16 15 10 9 11 10 9 9 6 9 12 9 14
16 16 15 16 5 4 12 5 12 16 21 18 27 30 34 38 41 46 48 53 54 54 54 50 48 44 38 34 31 29 32 34 33 27 27 24 19 17 12 11 12 12 11 11 7 7 13 11 13
15 11 12 13 5 4 11 1 7 18 20 23 27 35 38 41 40 46 50 54 57 56 56 54 51 46 42 38 34 33 32 31 28 25 22 20 23 19 18 14 11 13 12 9 11 11 12 12 11
11 9 11 3 4 8 10 9 5 15 29 25 25 35 38 42 42 46 49 53 55 57 56 59 54 49 44 40 38 38 35 31 30 27 24 23 20 20 19 18 12 12 13 13 13 13 12 13 12
15 6 6 3 6 9 10 6 14 24 29 25 29 37 40 44 46 45 48 47 52 58 58 59 56 51 47 42 41 40 38 32 30 30 28 24 23 23 21 20 18 15 15 15 14 16 14 12 13
12 17 9 12 5 9 4 9 12 13 32 40 42 48 45 47 45 43 50 54 55 59 58 58 56 52 49 45 41 41 40 36 34 32 29 29 27 23 19 22 20 17 16 16 16 16 15 13 17
9 16 14 4 2 1 4 7 7 9 12 16 36 41 42 52 49 50 50 53 54 60 61 60 58 55 52 48 42 40 41 40 38 35 31 30 27 26 22 22 21 19 17 16 17 18 18 18 16
24 7 6 3 16 10 5 6 12 9 11 9 16 36 48 50 54 48 50 53 56 62 64 61 59 56 54 50 46 42 41 41 40 37 34 31 30 27 26 23 22 22 22 21 19 18 19 22 21
15 16 5 6 5 10 4 10 8 10 11 11 15 38 44 49 51 53 53 54 59 60 62 61 59 57 54 51 48 46 43 41 42 41 38 34 31 32 30 29 27 23 22 27 25 23 20 24 25
7 10 13 9 11 3 5 14 6 12 12 10 17 40 53 51 57 57 55 54 53 55 59 61 59 57 53 47 47 47 43 42 43 43 42 38 35 34 34 31 32 31 27 24 27 25 22 24 28
Wind_Direction
143 149 142 146 328 171 337 356 7 95 118 176 160 138 118 59 72 162 148 152 153 149 147 148 151 147 134 128 125 120 117 113 112 110 107 107 105 108 116 118 118 113 111 109 106 100 98 92 95
163 148 127 298 240 14 10 40 239 140 199 121 94 103 64 76 110 138 146 154 152 149 148 148 151 148 141 133 125 121 118 115 110 107 107 110 110 107 108 114 114 114 112 106 96 99 105 100 100
165 148 303 214 108 219 151 216 226 164 145 118 114 67 65 94 142 141 147 151 151 148 148 149 150 149 147 137 129 126 117 111 107 107 107 108 106 108 112 111 111 115 113 105 101 100 104 110 110
165 250 268 290 351 247 223 343 179 165 128 84 110 75 68 174 138 150 149 152 150 148 148 149 150 150 148 141 134 130 120 110 110 109 108 103 104 105 104 107 107 110 109 103 99 98 101 112 119
155 329 336 275 74 287 259 254 317 226 87 112 110 76 101 133 145 147 149 152 154 150 150 151 151 150 149 143 139 133 121 113 113 112 109 110 109 107 104 104 103 101 100 96 87 92 106 112 123
163 142 308 328 345 268 277 217 207 235 115 114 103 104 122 146 147 148 150 153 156 152 152 151 152 151 151 146 141 135 123 118 115 113 109 110 108 105 102 100 98 97 95 92 85 84 101 119 134
247 161 111 335 333 346 304 178 192 158 142 124 133 97 137 153 147 148 153 157 157 157 156 153 153 155 153 149 141 132 126 123 121 116 113 111 109 107 101 98 98 94 91 91 94 89 92 112 125
244 108 161 176 206 263 302 151 139 154 122 136 137 144 158 151 149 152 161 162 163 161 160 157 156 158 154 150 144 135 133 131 127 120 116 119 117 115 108 97 100 101 100 98 99 102 100 112 126
206 282 199 239 205 206 295 151 157 154 135 180 165 156 152 150 148 161 165 166 165 166 165 161 162 160 156 154 148 140 138 133 128 123 117 114 114 116 111 106 108 108 102 104 108 114 121 121 136
201 206 235 205 190 213 160 135 150 130 128 107 114 141 150 151 156 167 170 169 168 170 169 167 166 163 160 159 147 145 141 139 132 130 125 122 120 118 121 126 129 137 119 107 127 133 129 126 135
207 229 241 246 230 206 221 166 143 136 164 156 146 150 164 160 164 169 170 171 171 172 172 171 170 168 165 158 149 149 147 142 134 140 139 130 131 122 121 129 135 123 91 135 152 142 142 123 131
261 227 232 243 205 203 191 317 169 179 171 165 161 156 161 167 171 170 175 179 174 177 179 175 172 169 166 155 153 148 148 141 146 130 135 150 153 136 143 149 192 182 114 75 145 142 140 114 104
234 247 235 245 277 271 339 25 182 144 151 157 154 157 164 171 176 178 180 184 180 180 184 182 175 172 160 147 158 157 148 140 129 128 159 150 151 143 148 178 146 107 129 113 121 123 138 118 110
232 230 246 177 336 322 85 83 93 144 146 148 156 164 166 172 176 179 180 186 188 187 184 181 178 172 171 159 164 160 166 155 163 161 180 115 146 147 165 174 158 133 100 113 110 113 136 129 131
248 265 245 207 174 122 110 77 137 153 154 154 162 167 173 181 181 182 184 189 190 192 185 180 179 179 180 173 181 183 190 191 180 188 181 183 212 160 174 164 154 147 133 113 111 103 142 145 133
225 234 250 220 178 133 100 188 166 164 163 168 169 171 180 187 190 185 186 191 199 196 194 188 187 187 184 183 189 194 204 184 180 195 208 215 256 228 178 180 161 152 152 124 123 124 133 136 146
229 245 240 251 201 146 130 185 195 181 171 175 181 177 182 186 193 199 192 195 196 198 199 198 196 195 197 199 192 192 189 187 194 210 215 225 249 222 193 183 196 179 174 157 168 156 158 182 185
196 229 222 234 217 155 143 184 173 180 181 188 187 182 185 191 196 197 196 197 196 200 204 210 204 201 203 211 207 197 198 194 198 206 212 222 229 222 203 191 163 163 158 169 184 178 169 180 190
255 226 232 257 157 160 179 186 197 191 192 194 190 190 193 193 200 201 202 204 200 204 208 209 207 204 205 211 215 207 204 200 200 203 215 215 230 229 227 212 195 180 189 197 186 184 194 183 173
231 254 252 272 274 196 181 195 202 196 201 196 191 191 199 197 196 204 203 207 204 207 210 209 210 209 210 214 214 212 210 209 212 204 217 214 222 224 239 216 206 211 197 199 198 203 197 194 172
230 233 247 241 300 31 131 151 200 218 221 202 205 203 201 200 198 202 205 204 205 208 209 211 210 211 213 217 217 215 215 217 217 212 213 219 215 225 239 228 211 212 202 217 213 213 197 188 179
230 232 251 257 262 213 171 209 198 195 216 217 212 208 207 204 203 205 204 208 205 209 211 212 211 213 218 219 220 215 211 212 214 212 215 219 220 223 237 244 218 216 220 216 218 238 204 193 193
234 233 246 251 229 214 229 122 239 193 213 218 218 210 212 213 207 203 203 212 212 207 210 211 212 216 219 224 226 220 220 220 219 215 208 211 221 226 237 244 225 222 219 216 216 218 202 202 200
226 230 255 261 193 241 229 206 265 181 212 213 218 212 207 213 208 205 203 206 205 208 210 211 212 216 220 225 229 226 225 223 221 217 213 211 216 223 228 235 234 232 231 231 222 218 207 210 215
214 149 240 290 239 232 219 217 225 205 209 208 206 215 208 211 206 205 199 193 195 202 207 207 211 215 221 225 229 228 228 226 222 219 219 217 215 220 223 233 238 238 236 233 226 223 221 217 222
211 204 198 214 197 230 194 210 239 204 217 207 208 207 204 207 209 206 204 199 201 207 210 211 213 217 221 224 228 230 231 229 227 224 222 223 224 224 225 231 239 244 242 234 235 232 232 237 232
216 210 204 176 196 156 221 238 265 231 193 211 211 209 202 203 208 209 206 202 201 209 215 217 217 218 220 223 225 229 230 230 229 227 225 224 223 225 229 233 240 239 238 232 233 238 237 236 228
213 166 194 213 228 244 275 221 226 216 241 211 199 200 200 205 207 209 205 202 203 212 218 219 221 219 221 223 225 227 229 232 232 232 227 223 222 225 224 230 238 245 244 238 234 238 241 237 231
214 211 226 168 157 219 223 251 215 230 216 209 193 193 204 202 205 206 206 203 205 209 215 220 220 221 222 224 226 227 229 231 233 234 232 228 225 223 227 229 234 235 246 241 237 239 245 242 238
256 191 199 206 225 212 190 253 240 213 231 215 220 196 201 201 202 201 205 202 200 204 212 218 222 221 222 224 226 228 229 229 231 233 235 234 230 226 227 232 236 241 243 236 236 240 245 247 242